Home > Weather > Sevierville > Past weeks

Flag for U.S.A. Weather for the Past 2 Weeks in Sevierville, Tennessee, U.S.A.

Now
22 °F

Passing clouds.


Feels Like: 12 °F
Forecast: 16 / 33 °F
Wind: 8 mph from Northeast

Location: McGhee Tyson Airport

Current Time: Feb 14, 2016 at 3:54:29 AM

Latest Report: Feb 14, 2016 at 2:53 AM


Visibility: 10 mi

Pressure: 30.41 "Hg

Humidity: 50%

Dew point: 6 °F

Location of SeviervilleLocation

Historic Weather in Sevierville — Graph

°F

Sevierville Temperature Yesterday

Maximum temperature yesterday: 31 °F (at 2:53 PM)
Minimum temperature yesterday: 21 °F (at 11:53 PM)
Average temperature yesterday: 27 °F

High & Low Weather Summary for the Past Weeks

 TemperatureHumidityPressure
High75 °F (Feb 2, 3:53 PM)100% (Feb 2, 3:53 AM)30.48 "Hg (Feb 2, 3:53 AM)
Low19 °F (Feb 10, 7:53 AM)23% (Feb 6, 1:53 PM)29.67 "Hg (Feb 8, 1:53 PM)
Average40 °F62%30.09 "Hg
* Reported Jan 30 1:53 AM — Feb 14 1:53 AM, Sevierville, Weather by CustomWeather, © 2016

Note: Actual official high and low records may vary slightly from our data, if they occured in-between our weather recording intervals... More about our weather records

Advertising

Sevierville Weather History for the Previous 24 Hours

 ConditionsComfort  
Time TempWeatherWind HumidityBarometerVisibility
1:53 AM
Sun, Feb 14
21 °FPassing clouds.9 mph55%30.42 "Hg10 mi
12:53 AM20 °FPassing clouds.8 mph57%30.42 "Hg10 mi
11:53 PM
Sat, Feb 13
21 °FClear.7 mph55%30.43 "Hg10 mi
10:53 PM22 °FClear.8 mph50%30.45 "Hg10 mi
9:53 PM22 °FClear.9 mph48%30.46 "Hg10 mi
8:53 PM24 °FClear.6 mph48%30.48 "Hg10 mi
7:53 PM25 °FClear.7 mph44%30.47 "Hg10 mi
6:53 PM27 °FClear.8 mph39%30.45 "Hg10 mi
5:53 PM30 °FSunny.7 mph34%30.45 "Hg10 mi
3:53 PM31 °FSunny.9 mph33%30.43 "Hg10 mi
2:53 PM31 °FSunny.6 mph33%30.43 "Hg10 mi
1:53 PM30 °FPassing clouds.9 mph41%30.43 "Hg10 mi
12:53 PM29 °FPassing clouds.9 mph41%30.45 "Hg10 mi
11:53 AM28 °FPassing clouds.7 mph47%30.47 "Hg10 mi
10:53 AM26 °FScattered clouds.12 mph46%30.47 "Hg10 mi
9:53 AM26 °FScattered clouds.13 mph48%30.46 "Hg10 mi
8:53 AM25 °FScattered clouds.12 mph53%30.44 "Hg10 mi
7:53 AM24 °FBroken clouds.9 mph57%30.42 "Hg10 mi
6:53 AM24 °FPassing clouds.7 mph52%30.39 "Hg10 mi
5:53 AM24 °FPassing clouds.7 mph57%30.38 "Hg10 mi
4:53 AM26 °FPassing clouds.13 mph55%30.34 "Hg10 mi
3:53 AM27 °FOvercast.14 mph69%30.32 "Hg10 mi
Weather by CustomWeather, © 2016

See weather overviewHow to use our weather pages